LIFSTR2 KBDL-KJFK

Flight info

Callsign LIFSTR2
Flight time N/A
Altitude 5000
Route DIRECT
Aircraft H160/L-SDE2E3GHIJ1RWZ/S

Departure

Time 2026-04-29 16:36
Airport Bradley International Airport (KBDL)

Arrival

Time N/A
Airport John F. Kennedy International Airport (KJFK)
Time Latitude Longitude Altitude Speed Heading
2026-04-29 16:29 41.93430 -72.69877 175 ft 0 kts 178°
2026-04-29 16:35 41.93405 -72.69926 499 ft 13 kts 195°
2026-04-29 16:35 41.93346 -72.70103 979 ft 28 kts 199°
2026-04-29 16:35 41.93253 -72.70410 1690 ft 43 kts 194°
2026-04-29 16:36 41.93120 -72.70824 2465 ft 51 kts 225°
2026-04-29 16:36 41.92917 -72.71216 3356 ft 51 kts 209°
2026-04-29 16:36 41.92621 -72.71463 4177 ft 50 kts 179°
2026-04-29 16:36 41.92288 -72.71579 4702 ft 50 kts 172°
2026-04-29 16:37 41.91952 -72.71699 5163 ft 50 kts 176°
2026-04-29 16:37 41.91631 -72.71822 5192 ft 46 kts 182°
2026-04-29 16:37 41.91332 -72.71946 5111 ft 44 kts 179°
2026-04-29 16:37 41.91145 -72.72028 5080 ft 41 kts 179°
2026-04-29 16:38 41.90763 -72.72212 5038 ft 50 kts 189°
2026-04-29 16:38 41.90395 -72.72400 5032 ft 62 kts 192°
2026-04-29 16:38 41.89965 -72.72638 5037 ft 71 kts 194°
2026-04-29 16:38 41.89495 -72.72913 5020 ft 76 kts 197°
2026-04-29 16:39 41.89006 -72.73224 5019 ft 80 kts 199°
2026-04-29 16:39 41.88504 -72.73562 5022 ft 84 kts 200°
2026-04-29 16:39 41.87980 -72.73929 5040 ft 86 kts 202°
2026-04-29 16:39 41.87447 -72.74313 5006 ft 88 kts 205°
2026-04-29 16:40 41.86903 -72.74725 5020 ft 92 kts 204°
2026-04-29 16:40 41.86336 -72.75167 5027 ft 96 kts 202°
2026-04-29 16:40 41.85751 -72.75621 5028 ft 97 kts 202°
2026-04-29 16:40 41.85170 -72.76083 5017 ft 97 kts 206°
2026-04-29 16:41 41.84590 -72.76559 5029 ft 99 kts 207°
2026-04-29 16:41 41.84003 -72.77046 5026 ft 100 kts 206°
2026-04-29 16:41 41.83418 -72.77533 5037 ft 101 kts 206°
2026-04-29 16:41 41.82824 -72.78029 5036 ft 100 kts 207°
2026-04-29 16:42 41.82235 -72.78528 5021 ft 101 kts 208°
2026-04-29 16:42 41.81639 -72.79035 5022 ft 101 kts 207°
2026-04-29 16:42 41.81041 -72.79543 5022 ft 102 kts 207°
2026-04-29 16:42 41.80443 -72.80053 5021 ft 102 kts 207°
2026-04-29 16:43 41.79845 -72.80566 5019 ft 102 kts 207°
2026-04-29 16:43 41.79250 -72.81075 5027 ft 103 kts 206°
2026-04-29 16:43 41.78650 -72.81589 5018 ft 102 kts 208°
2026-04-29 16:43 41.78046 -72.82105 5021 ft 103 kts 207°
2026-04-29 16:44 41.77443 -72.82620 5025 ft 102 kts 207°
2026-04-29 16:44 41.76843 -72.83132 5020 ft 102 kts 208°
2026-04-29 16:44 41.76242 -72.83648 5021 ft 103 kts 207°
2026-04-29 16:44 41.75639 -72.84166 5020 ft 103 kts 208°
2026-04-29 16:45 41.75031 -72.84688 5021 ft 104 kts 207°
2026-04-29 16:45 41.74429 -72.85202 5024 ft 104 kts 207°
2026-04-29 16:45 41.73822 -72.85721 5027 ft 103 kts 207°
2026-04-29 16:45 41.73217 -72.86240 5028 ft 104 kts 205°
2026-04-29 16:46 41.72610 -72.86756 5022 ft 103 kts 207°
2026-04-29 16:46 41.72005 -72.87274 5018 ft 103 kts 207°
2026-04-29 16:46 41.71399 -72.87793 5020 ft 103 kts 207°
2026-04-29 16:46 41.70793 -72.88310 5037 ft 103 kts 207°
2026-04-29 16:47 41.70188 -72.88826 5040 ft 103 kts 206°
2026-04-29 16:47 41.69585 -72.89337 5016 ft 102 kts 207°
2026-04-29 16:47 41.68995 -72.89840 5024 ft 102 kts 206°
2026-04-29 16:47 41.68396 -72.90346 5023 ft 101 kts 206°
2026-04-29 16:48 41.67805 -72.90848 5027 ft 100 kts 205°
2026-04-29 16:48 41.67217 -72.91348 5020 ft 100 kts 207°
2026-04-29 16:48 41.66627 -72.91849 5025 ft 100 kts 207°
2026-04-29 16:48 41.66038 -72.92346 5027 ft 100 kts 206°
2026-04-29 16:49 41.65461 -72.92835 5009 ft 99 kts 207°
2026-04-29 16:49 41.64881 -72.93335 5013 ft 100 kts 207°
2026-04-29 16:49 41.64294 -72.93841 5026 ft 101 kts 207°
2026-04-29 16:49 41.63700 -72.94353 5029 ft 102 kts 207°
2026-04-29 16:50 41.63101 -72.94866 5030 ft 102 kts 207°
2026-04-29 16:50 41.62501 -72.95383 5029 ft 103 kts 207°
2026-04-29 16:50 41.61896 -72.95901 5030 ft 103 kts 207°
2026-04-29 16:50 41.61297 -72.96413 5030 ft 104 kts 207°
2026-04-29 16:51 41.60689 -72.96934 5031 ft 104 kts 207°
2026-04-29 16:51 41.60081 -72.97453 5037 ft 104 kts 205°
2026-04-29 16:51 41.59472 -72.97972 5032 ft 103 kts 207°
2026-04-29 16:51 41.58864 -72.98491 5029 ft 104 kts 206°
2026-04-29 16:52 41.58256 -72.99009 5033 ft 103 kts 206°
2026-04-29 16:52 41.57651 -72.99525 5031 ft 103 kts 207°
2026-04-29 16:52 41.57046 -73.00041 5036 ft 103 kts 206°
2026-04-29 16:52 41.56438 -73.00551 5046 ft 102 kts 205°
2026-04-29 16:53 41.55848 -73.01045 5032 ft 100 kts 204°
2026-04-29 16:53 41.55259 -73.01541 5028 ft 100 kts 206°
2026-04-29 16:53 41.54675 -73.02033 5020 ft 99 kts 207°
2026-04-29 16:53 41.54093 -73.02529 5026 ft 99 kts 206°
2026-04-29 16:54 41.53507 -73.03031 5033 ft 101 kts 205°
2026-04-29 16:54 41.52917 -73.03532 5017 ft 100 kts 207°
2026-04-29 16:54 41.52324 -73.04039 5029 ft 101 kts 206°
2026-04-29 16:54 41.51736 -73.04543 5028 ft 102 kts 206°
2026-04-29 16:55 41.51136 -73.05056 5027 ft 103 kts 206°
2026-04-29 16:55 41.50533 -73.05573 5035 ft 104 kts 205°
2026-04-29 16:55 41.49926 -73.06090 5030 ft 103 kts 206°
2026-04-29 16:55 41.49319 -73.06606 5034 ft 104 kts 206°
2026-04-29 16:56 41.48710 -73.07120 5039 ft 103 kts 206°
2026-04-29 16:56 41.48105 -73.07631 5027 ft 103 kts 206°
2026-04-29 16:56 41.47500 -73.08141 5043 ft 102 kts 206°
2026-04-29 16:56 41.46907 -73.08644 5029 ft 102 kts 206°
2026-04-29 16:57 41.46306 -73.09152 5020 ft 102 kts 207°
2026-04-29 16:57 41.45706 -73.09664 5019 ft 102 kts 207°
2026-04-29 16:57 41.45101 -73.10178 5043 ft 103 kts 205°
2026-04-29 16:57 41.44495 -73.10683 5014 ft 102 kts 206°
2026-04-29 16:58 41.43899 -73.11191 5019 ft 102 kts 207°
2026-04-29 16:58 41.43298 -73.11704 5027 ft 103 kts 206°
2026-04-29 16:58 41.42694 -73.12218 5026 ft 104 kts 206°
2026-04-29 16:58 41.42093 -73.12728 5028 ft 104 kts 207°
2026-04-29 16:59 41.41484 -73.13245 5029 ft 104 kts 206°
2026-04-29 16:59 41.40873 -73.13762 5045 ft 104 kts 206°
2026-04-29 16:59 41.40263 -73.14279 5034 ft 104 kts 207°
2026-04-29 16:59 41.39653 -73.14797 5031 ft 104 kts 206°
2026-04-29 17:00 41.39040 -73.15317 5032 ft 104 kts 206°
2026-04-29 17:00 41.38427 -73.15836 5049 ft 105 kts 205°
2026-04-29 17:00 41.37813 -73.16355 5037 ft 104 kts 206°
2026-04-29 17:00 41.37208 -73.16866 5040 ft 104 kts 205°
2026-04-29 17:01 41.36588 -73.17386 5027 ft 104 kts 206°
2026-04-29 17:01 41.35986 -73.17895 5027 ft 104 kts 207°
2026-04-29 17:01 41.35375 -73.18410 5032 ft 104 kts 205°
2026-04-29 17:01 41.34766 -73.18923 5025 ft 104 kts 206°
2026-04-29 17:02 41.34155 -73.19441 5031 ft 104 kts 207°
2026-04-29 17:02 41.33541 -73.19960 5035 ft 105 kts 206°
2026-04-29 17:02 41.32925 -73.20480 5038 ft 105 kts 204°
2026-04-29 17:02 41.32308 -73.20995 5027 ft 104 kts 207°
2026-04-29 17:03 41.31699 -73.21509 5064 ft 104 kts 204°
2026-04-29 17:03 41.31088 -73.22018 5050 ft 103 kts 206°
2026-04-29 17:03 41.30481 -73.22528 5053 ft 103 kts 206°
2026-04-29 17:03 41.29877 -73.23040 5051 ft 103 kts 206°
2026-04-29 17:04 41.29279 -73.23544 5059 ft 103 kts 206°
2026-04-29 17:04 41.28669 -73.24052 5052 ft 103 kts 206°
2026-04-29 17:04 41.28066 -73.24561 5048 ft 102 kts 206°
2026-04-29 17:04 41.27463 -73.25072 5053 ft 103 kts 205°
2026-04-29 17:05 41.27061 -73.25412 5060 ft 104 kts 206°
2026-04-29 17:05 41.26449 -73.25927 5053 ft 104 kts 206°
2026-04-29 17:05 41.25823 -73.26458 5044 ft 115 kts 206°
2026-04-29 17:05 41.24823 -73.27314 5042 ft 140 kts 208°
2026-04-29 17:06 41.23966 -73.28049 5067 ft 151 kts 207°
2026-04-29 17:06 41.23358 -73.28568 5067 ft 156 kts 208°
2026-04-29 17:06 41.22439 -73.29354 5054 ft 162 kts 209°
2026-04-29 17:06 41.21480 -73.30174 5047 ft 166 kts 208°
2026-04-29 17:07 41.20501 -73.31006 5047 ft 168 kts 209°
2026-04-29 17:07 41.19507 -73.31847 5052 ft 170 kts 209°
2026-04-29 17:07 41.18503 -73.32694 5053 ft 171 kts 209°
2026-04-29 17:07 41.17494 -73.33546 5045 ft 172 kts 209°
2026-04-29 17:08 41.16486 -73.34398 5042 ft 172 kts 209°
2026-04-29 17:08 41.15481 -73.35247 5051 ft 170 kts 209°
2026-04-29 17:08 41.14973 -73.35503 2961 ft 18 kts 217°
2026-04-29 17:08 41.14909 -73.35570 810 ft 16 kts 249°
2026-04-29 17:09 41.14899 -73.35647 74 ft 0 kts 292°